Regional Weather Roundup
Issued by NWS Goodland, KS

Home | Current Version | Previous Version | Graphics & Text | Print | Product List | Glossary On
Versions: 1 2 3 4 5 6 7 8 9 10 11 12 13 14 15 16 17 18 19 20 21 22 23 24 25 26 27 28 29 30 31 32 33 34 35 36 37 38 39 40 41 42 43 44 45 46 47 48 49 50
000
ASUS43 KGLD 222159
RWRGLD

GOODLAND FORECAST AREA HOURLY WEATHER ROUNDUP
NATIONAL WEATHER SERVICE GOODLAND KS
400 PM MDT SUN APR 22 2018

...OFFICIAL OBSERVATIONS...

CITY           SKY/WX    TMP DP  RH WIND       PRES   REMARKS
GOODLAND KS    SUNNY     53  35  50 NE6       30.16F
HILL CITY KS   MOSUNNY   62  40  44 VRB3      30.15F
IMPERIAL NEB   MOSUNNY   55  36  48 SW6       30.17F
MCCOOK NEB     MOSUNNY   58  39  49 CALM      30.16F
AKRON CO       MOSUNNY   57  39  51 E8        30.13F
BURLINGTON CO  MOSUNNY   56  38  50 E8        30.15F
LIMON CO       SUNNY     61  30  31 N8G18     30.12F
$$

...UNOFFICIAL OBSERVATIONS...

CITY           SKY/WX    TMP DP  RH WIND       PRES   REMARKS
NORTON KS      MOSUNNY   63  37  39 NE8       30.15
KIT CARSON CO    N/A     57  39  51 CALM        N/A
YUMA CO        FAIR      54  27  35 E8        30.14F
$$




USA.gov is the U.S. government's official web portal to all federal, state and local government web resources and services.